Home > Weather > Amsterdam Island > Past weeks

Flag for French Southern Territories Past Weather in Amsterdam Island, French Southern Territories — Yesterday and Last 2 Weeks

Now
52 °F

Cool.


Feels Like: 48 °F
Forecast: 54 / 57 °F
Wind: 13 mph from Northwest

Location: Martin De Vivies Ile Amsterdam

Current Time: Jul 24, 2016 at 10:09:06 AM

Latest Report: Jul 24, 2016 at 9:00 AM


Visibility: N/A

Pressure: 30.71 "Hg

Humidity: 75%

Dew Point: 45 °F

Location of Amsterdam IslandLocation

Past Weather in Amsterdam Island — Graph

°F

Amsterdam Island Temperature Yesterday

Maximum temperature yesterday: 56 °F (at 12:00 PM)
Minimum temperature yesterday: 45 °F (at 7:00 AM)
Average temperature yesterday: 51 °F

High & Low Weather Summary for the Past Weeks

 TemperatureHumidityPressure
High59 °F (Jul 11, 9:00 AM)95% (Jul 9, 11:00 AM)30.83 "Hg (Jul 9, 11:00 AM)
Low42 °F (Jul 14, 4:00 PM)52% (Jul 14, 12:00 PM)29.15 "Hg (Jul 12, 2:00 AM)
Average52 °F76%30.29 "Hg
* Reported Jul 9 9:00 AM — Jul 24 9:00 AM, Amsterdam Island, Weather by CustomWeather, © 2016

Note: Actual official high and low records may vary slightly from our data, if they occured in-between our weather recording intervals... More about our weather records

Advertising

Amsterdam Island Weather History for the Previous 24 Hours

Scroll right to see more
 ConditionsComfort  
Time TempWeatherWind HumidityBarometerVisibility
9:00 AM
Sun, Jul 24
52 °FCool.13 mph75%30.71 "HgN/A
8:00 AM52 °FCool.14 mph74%30.71 "HgN/A
7:00 AM50 °FCool.12 mph81%30.71 "HgN/A
6:00 AM51 °FCool.13 mph80%30.71 "HgN/A
5:00 AM49 °FCool.13 mph85%30.71 "HgN/A
4:00 AM49 °FCool.9 mph87%30.71 "HgN/A
3:00 AM49 °FCool.9 mph81%30.72 "HgN/A
2:00 AM51 °FCool.9 mph75%30.73 "HgN/A
1:00 AM47 °FCool.6 mph84%30.74 "HgN/A
12:00 AM48 °FCool.7 mph84%30.75 "HgN/A
11:00 PM
Sat, Jul 23
51 °FCool.10 mph79%30.76 "HgN/A
10:00 PM51 °FCool.9 mph76%30.76 "HgN/A
8:00 PM50 °FCool.5 mph77%30.76 "HgN/A
7:00 PM49 °FCool.6 mph77%30.76 "HgN/A
6:00 PM48 °FCool.6 mph77%30.75 "HgN/A
5:00 PM51 °FCool.9 mph73%30.75 "HgN/A
4:00 PM54 °FCool.12 mph68%30.75 "HgN/A
3:00 PM56 °FCool.12 mph68%30.76 "HgN/A
2:00 PM56 °FCool.12 mph67%30.77 "HgN/A
1:00 PM55 °FCool.12 mph71%30.78 "HgN/A
12:00 PM56 °FCool.12 mph71%30.78 "HgN/A
11:00 AM55 °FCool.8 mph80%30.81 "HgN/A
10:00 AM55 °FCool.7 mph84%30.81 "HgN/A
Weather by CustomWeather, © 2016

See weather overviewHow to use our weather pages